{"data":{"norad_id":67705,"intl_designator":"2026-025N","name":"STARLINK-36316","alt_names":[],"object_type":"PAYLOAD","status":"ACTIVE","operator":null,"country":"US","launch_date":"2026-02-07","launch_site_code":"AFWTR","launch_vehicle":null,"mission":null,"orbit_class":"UNKNOWN","rcs_meters":null,"size_class":null,"mass_kg":null,"dimensions":null,"purposes":["comms"],"wikipedia_slug":null,"has_3d_model":false,"image_url":null,"decayed_at":null,"tle_current":{"epoch":"2026-09-19T06:17:34.238112Z","epoch_age_seconds":175774,"freshness":"STALE","line1":"1 67705U 26025N   26262.26220183  .00022889  00000+0  70938-3 0  9990","line2":"2 67705  97.2842  12.1395 0001106  82.7007 277.4361 15.33435625 35670","mean_motion":15.33435625,"eccentricity":0.0001106,"inclination_deg":97.2842,"raan_deg":12.1395,"arg_perigee_deg":82.7007,"mean_anomaly_deg":277.4361,"bstar":0.00070938,"rev_number":3567,"period_min":93.906778773318,"perigee_km":464.81415391205,"apogee_km":466.32798213669,"semimajor_km":6843.7080680244,"source":"CELESTRAK","updated_at":"2026-09-20T09:00:43.653408Z"}}}